[[{"header":{"parameterUnit":"m.s-1","parameterCategory":2,"la1":30.2991,"la2":30.254,"lo1":-89.0895,"lo2":-89.0444,"dy":0.0017,"dx":0.0017,"nx":28,"ny":28,"refTime":"2023-08-26T03:00:00:Z","depth":"0","parameterNumber":2,"parameterNumberName":"U-component_of_CURRENTS"},"data":[0,0,0,0,0,0,0,0,0,0,0,0,0,0,0,0,0,0,0,0,0,0,0,0,0,0,0,0,0,0,0,0,0,0,0,0,0,0,0,0,0,0,0,0,0,0,0,0,0,0,0,0,0,0,0,0,0,0,-0.2726,-0.2727,0,-0.2783,-0.2783,-0.2784,-0.2789,-0.2788,-0.2788,-0.2788,-0.2778,-0.2778,-0.2778,0,0,0,0,0,0,0,0,0,0,0,0,0,-0.2458,-0.2463,-0.2726,-0.2727,-0.2728,-0.2783,-0.2783,-0.2784,-0.2789,-0.2788,-0.2788,-0.2788,-0.2778,-0.2778,-0.2778,0,0,0,0,0,0,0,0,0,0,0,0,0,-0.2547,-0.2465,-0.2725,-0.274,-0.2743,-0.2783,-0.2783,-0.2784,-0.2789,-0.2788,-0.2788,-0.2788,-0.2778,-0.2778,-0.2778,-0.2783,0,0,-0.2777,-0.2777,0,0,0,0,0,0,0,0,-0.2542,-0.2556,-0.2737,-0.2739,-0.2742,-0.2782,-0.2686,-0.2782,-0.2789,-0.2766,-0.2788,-0.2788,-0.2776,-0.2776,-0.2782,-0.2782,-0.2782,-0.2777,-0.2777,-0.2777,-0.2777,0,0,0,0,0,0,0,-0.2536,-0.2553,-0.2744,-0.2738,-0.2741,-0.2689,-0.2702,-0.2703,-0.2767,-0.2768,-0.277,-0.2784,-0.2777,-0.2782,-0.2782,-0.2782,-0.2777,-0.2777,-0.2777,-0.2777,-0.2693,-0.2691,0,0,0,0,0,0,-0.2548,-0.2549,-0.2742,-0.2746,-0.2644,-0.2695,-0.2709,-0.2766,-0.2769,-0.2771,-0.2784,-0.2784,-0.2783,-0.2782,-0.2782,-0.2742,-0.2777,-0.2777,-0.2777,-0.2695,-0.2692,-0.269,0,0,0,0,0,0,-0.2543,-0.2567,-0.274,-0.2648,-0.2667,-0.2702,-0.2764,-0.2767,-0.2774,-0.2783,-0.2782,-0.2787,-0.2783,-0.2782,-0.2775,-0.2743,-0.2777,-0.2777,-0.2697,-0.2694,-0.2691,-0.2691,0,0,0,0,0,0,-0.2536,-0.2565,-0.259,-0.2652,-0.2674,-0.2761,-0.2765,-0.2769,-0.2785,-0.2785,-0.2785,-0.2784,-0.2782,-0.2775,-0.2774,-0.2743,-0.2777,-0.27,-0.2696,-0.2692,-0.2694,-0.2688,-0.2683,0,0,0,0,0,-0.2527,-0.2572,-0.2592,-0.2614,-0.2715,-0.2761,-0.2766,-0.2784,-0.2786,-0.2787,-0.2783,-0.2784,-0.2747,-0.2774,-0.2774,-0.2742,-0.2702,-0.2697,-0.2692,-0.2696,-0.2689,-0.2684,0,0,0,0,0,0,-0.2439,-0.2579,-0.2602,-0.2679,-0.2714,-0.2764,-0.2773,-0.2784,-0.2785,-0.2781,-0.2782,-0.278,-0.2752,-0.2746,-0.2776,-0.2698,-0.2714,-0.2709,-0.2717,-0.271,-0.2705,-0.2661,-0.2777,0,0,0,0,0,-0.2442,-0.2528,-0.2612,-0.2661,-0.2692,-0.273,-0.2745,-0.276,-0.278,-0.278,-0.2784,-0.2764,-0.2731,-0.2724,-0.2703,-0.2684,-0.2647,-0.265,-0.2645,-0.2641,-0.26,-0.2525,-0.2509,-0.2674,-0.2674,-0.2674,0,0,-0.241,-0.2502,-0.2541,-0.2649,-0.2684,-0.2705,-0.2738,-0.277,-0.2758,-0.2778,-0.2763,-0.2756,-0.2721,-0.2688,-0.2672,-0.2682,-0.258,-0.2635,-0.2632,-0.2592,-0.2518,-0.2502,-0.2488,-0.2671,-0.2671,-0.2672,0,0,-0.2375,-0.2488,-0.2529,-0.2581,-0.2651,-0.2682,-0.2693,-0.2749,-0.2749,-0.2747,-0.2733,-0.2697,-0.2693,-0.2638,-0.2611,-0.2559,-0.2556,-0.2566,-0.251,-0.2439,-0.2425,-0.2412,-0.2376,-0.236,-0.2564,-0.2564,-0.2564,0,-0.2313,-0.2394,-0.2528,-0.2571,-0.2589,-0.2672,-0.2662,-0.269,-0.2721,-0.2696,-0.2736,-0.2658,-0.2646,-0.2548,-0.2533,-0.2544,-0.2528,-0.255,-0.2434,-0.242,-0.2407,-0.2373,-0.2355,-0.2564,-0.2564,-0.2564,-0.2564,0,-0.2297,-0.2354,-0.2384,-0.2476,-0.2517,-0.2531,-0.26,-0.2613,-0.2634,-0.2638,-0.2578,-0.2569,-0.2503,-0.2504,-0.251,-0.2399,-0.243,-0.2442,-0.2457,-0.239,-0.2359,-0.234,-0.2563,-0.2563,-0.2563,-0.2563,0,0,-0.2164,-0.2328,-0.2331,-0.2349,-0.2463,-0.2487,-0.2495,-0.2491,-0.2465,-0.2494,-0.2426,-0.238,-0.2382,-0.2346,-0.2347,-0.23,-0.2217,-0.2341,-0.2338,-0.2318,-0.2094,-0.2037,-0.2012,-0.2234,-0.223,-0.2227,-0.2123,0,-0.2074,-0.2118,-0.2221,-0.222,-0.2248,-0.2337,-0.2334,-0.2356,-0.2378,-0.2355,-0.233,-0.2284,-0.2322,-0.2297,-0.2247,-0.2231,-0.2162,-0.2245,-0.2147,-0.2143,-0.2111,-0.1984,-0.1893,-0.1785,-0.2104,-0.2101,-0.2099,0,-0.2012,-0.2054,-0.2042,-0.211,-0.2123,-0.213,-0.2138,-0.2144,-0.2156,-0.2168,-0.2132,-0.2151,-0.2076,-0.2129,-0.2026,-0.2094,-0.2063,-0.2059,-0.2056,-0.1974,-0.2048,-0.1893,-0.1739,-0.1728,-0.207,-0.2073,-0.2075,0,-0.1876,-0.1927,-0.1902,-0.1933,-0.2023,-0.2003,-0.2027,-0.2066,-0.2074,-0.2047,-0.2055,-0.1986,-0.1967,-0.1912,-0.1924,-0.197,-0.1836,-0.1889,-0.1793,-0.1792,-0.167,-0.1663,-0.1488,-0.1752,-0.1752,-0.1752,-0.1752,0,-0.1779,-0.1766,-0.1837,-0.1842,-0.1805,-0.1897,-0.1863,-0.1889,-0.1917,-0.1911,-0.1942,-0.1923,-0.1917,-0.188,-0.1866,-0.1769,-0.177,-0.1725,-0.1727,-0.1671,-0.1666,-0.1617,-0.1662,-0.1748,-0.1749,-0.175,-0.1751,0,-0.1686,-0.1723,-0.1721,-0.1761,-0.1768,-0.1754,-0.182,-0.1806,-0.184,-0.1835,-0.1829,-0.1862,-0.1801,-0.1793,-0.1712,-0.1686,-0.1564,-0.1563,-0.1519,-0.1513,-0.1403,-0.1453,-0.127,-0.1235,-0.1413,-0.141,-0.1408,0,-0.1652,-0.1637,-0.1669,-0.1668,-0.169,-0.1692,-0.1704,-0.176,-0.177,-0.1798,-0.1785,-0.1749,-0.1711,-0.159,-0.1512,-0.1412,-0.1446,-0.1277,-0.1299,-0.1318,-0.1377,-0.1438,-0.1429,-0.1163,-0.1159,-0.1156,-0.1154,0,-0.158,-0.159,-0.1593,-0.1591,-0.1596,-0.1608,-0.1628,-0.1639,-0.169,-0.1689,-0.1671,-0.1638,-0.1533,-0.139,-0.1274,-0.1215,-0.1239,-0.1204,-0.1207,-0.1114,-0.118,-0.1175,-0.1363,-0.1124,-0.1127,-0.1129,-0.1131,-0.1132,-0.1523,-0.151,-0.1507,-0.1499,-0.1508,-0.1505,-0.1479,-0.1512,-0.1506,-0.1457,-0.1505,-0.1366,-0.1293,-0.111,-0.1056,-0.0918,-0.1013,-0.0878,-0.0926,-0.098,-0.0945,-0.1075,-0.0855,-0.0856,-0.0857,-0.0858,-0.0859,0,-0.1435,-0.1422,-0.1414,-0.1396,-0.1365,-0.1401,-0.1404,-0.1352,-0.1303,-0.123,-0.117,-0.0982,-0.089,-0.0826,-0.0724,-0.0665,-0.068,-0.0653,-0.0713,-0.0709,-0.0778,-0.0766,-0.0534,-0.0534,-0.0534,-0.0534,-0.0534,-0.0534,-0.1384,-0.1336,-0.133,-0.1243,-0.1229,-0.1146,-0.1123,-0.1064,-0.0979,-0.0769,-0.0586,-0.0484,-0.0514,-0.0636,-0.0597,-0.056,-0.0583,-0.0545,-0.0606,-0.0672,-0.0699,-0.0723,-0.0718,-0.048,-0.048,-0.0488,-0.0488,-0.0488]},{"header":{"parameterUnit":"m.s-1","parameterCategory":2,"la1":30.2991,"la2":30.254,"lo1":-89.0895,"lo2":-89.0444,"dy":0.0017,"dx":0.0017,"nx":28,"ny":28,"refTime":"2023-08-26T03:00:00:Z","depth":"0","parameterNumber":3,"parameterNumberName":"V-component_of_CURRENTS"},"data":[0,0,0,0,0,0,0,0,0,0,0,0,0,0,0,0,0,0,0,0,0,0,0,0,0,0,0,0,0,0,0,0,0,0,0,0,0,0,0,0,0,0,0,0,0,0,0,0,0,0,0,0,0,0,0,0,0,0,-0.0926,-0.0926,0,-0.092,-0.092,-0.092,-0.0865,-0.0864,-0.0862,-0.0861,-0.0723,-0.0721,-0.0719,0,0,0,0,0,0,0,0,0,0,0,0,0,-0.0812,-0.0815,-0.0926,-0.0926,-0.0926,-0.092,-0.092,-0.092,-0.0865,-0.0863,-0.0862,-0.086,-0.0724,-0.0721,-0.0718,0,0,0,0,0,0,0,0,0,0,0,0,0,-0.0839,-0.0816,-0.0926,-0.0899,-0.0897,-0.092,-0.092,-0.092,-0.0865,-0.0863,-0.0862,-0.086,-0.0725,-0.0722,-0.0718,-0.0733,0,0,-0.0707,-0.0705,0,0,0,0,0,0,0,0,-0.0837,-0.0843,-0.0903,-0.0901,-0.0898,-0.0892,-0.0829,-0.0851,-0.0866,-0.0876,-0.0861,-0.0859,-0.077,-0.0762,-0.0766,-0.0727,-0.0721,-0.0706,-0.0704,-0.0702,-0.0701,0,0,0,0,0,0,0,-0.0836,-0.0842,-0.0923,-0.0903,-0.09,-0.086,-0.0862,-0.0833,-0.0831,-0.0875,-0.0871,-0.0873,-0.0767,-0.077,-0.0762,-0.0719,-0.0706,-0.0703,-0.0701,-0.0699,-0.0538,-0.0536,0,0,0,0,0,0,-0.0846,-0.0842,-0.0923,-0.0923,-0.0863,-0.0864,-0.0866,-0.0895,-0.0834,-0.0824,-0.0874,-0.087,-0.0777,-0.0766,-0.0756,-0.0687,-0.0702,-0.0699,-0.0697,-0.054,-0.0537,-0.0535,0,0,0,0,0,0,-0.0844,-0.0854,-0.0923,-0.088,-0.0886,-0.0869,-0.0901,-0.0896,-0.0888,-0.0835,-0.0822,-0.087,-0.0775,-0.0762,-0.0713,-0.0684,-0.0697,-0.0694,-0.0542,-0.0539,-0.0536,-0.0601,0,0,0,0,0,0,-0.0841,-0.0854,-0.0876,-0.0883,-0.0889,-0.0925,-0.0903,-0.0897,-0.0893,-0.0887,-0.0827,-0.0813,-0.0772,-0.0719,-0.0709,-0.0679,-0.0691,-0.0545,-0.0541,-0.0537,-0.0601,-0.06,-0.0599,0,0,0,0,0,-0.0837,-0.0876,-0.0878,-0.0887,-0.0922,-0.0925,-0.0925,-0.0903,-0.0894,-0.0889,-0.0846,-0.0814,-0.0685,-0.0716,-0.0705,-0.0672,-0.0547,-0.0542,-0.0537,-0.0602,-0.06,-0.0599,0,0,0,0,0,0,-0.0817,-0.0874,-0.0876,-0.0924,-0.0919,-0.0916,-0.0921,-0.0908,-0.0877,-0.0868,-0.0814,-0.0797,-0.0735,-0.0695,-0.0729,-0.0606,-0.06,-0.0593,-0.0652,-0.0651,-0.065,-0.066,-0.0688,0,0,0,0,0,-0.0832,-0.0889,-0.0901,-0.0936,-0.0941,-0.0933,-0.0933,-0.0918,-0.0894,-0.088,-0.0845,-0.0782,-0.0711,-0.0677,-0.0622,-0.0579,-0.0537,-0.0537,-0.0536,-0.0536,-0.0531,-0.0451,-0.0444,-0.052,-0.052,-0.052,0,0,-0.0827,-0.0871,-0.0896,-0.0937,-0.0939,-0.0942,-0.0927,-0.0931,-0.0916,-0.0869,-0.0845,-0.0789,-0.0699,-0.0638,-0.0604,-0.06,-0.0492,-0.053,-0.0531,-0.0526,-0.0446,-0.0439,-0.0433,-0.0517,-0.0517,-0.0518,0,0,-0.0838,-0.0893,-0.0928,-0.094,-0.0954,-0.0952,-0.0953,-0.0952,-0.0933,-0.0907,-0.0849,-0.0782,-0.0709,-0.0633,-0.0581,-0.0541,-0.0494,-0.0508,-0.0514,-0.0438,-0.0432,-0.0426,-0.0379,-0.0369,-0.0505,-0.0505,-0.0505,0,-0.0818,-0.0879,-0.0927,-0.0953,-0.0956,-0.0957,-0.0954,-0.0947,-0.0924,-0.0896,-0.0896,-0.0758,-0.0699,-0.0587,-0.0567,-0.0541,-0.0501,-0.0538,-0.0441,-0.0434,-0.0428,-0.038,-0.0368,-0.0508,-0.0507,-0.0507,-0.0507,0,-0.0844,-0.0885,-0.0906,-0.0951,-0.0958,-0.0963,-0.0959,-0.0953,-0.0939,-0.0912,-0.0827,-0.0758,-0.0663,-0.0627,-0.0588,-0.049,-0.048,-0.046,-0.0459,-0.0425,-0.0376,-0.0362,-0.0511,-0.051,-0.051,-0.0509,0,0,-0.0822,-0.0902,-0.091,-0.0925,-0.0956,-0.0963,-0.0951,-0.092,-0.0893,-0.0865,-0.0807,-0.07,-0.0667,-0.0604,-0.0543,-0.0481,-0.041,-0.0457,-0.0451,-0.0437,-0.026,-0.0235,-0.0217,-0.0379,-0.0377,-0.0375,-0.0253,0,-0.0811,-0.0862,-0.0897,-0.0916,-0.0938,-0.094,-0.0927,-0.0903,-0.0873,-0.0829,-0.0746,-0.0673,-0.0654,-0.0604,-0.0541,-0.0436,-0.0373,-0.0446,-0.027,-0.0265,-0.0269,-0.0199,-0.0173,-0.006,-0.0239,-0.0237,-0.0235,0,-0.083,-0.0864,-0.0885,-0.0913,-0.0916,-0.0917,-0.0896,-0.0881,-0.0819,-0.0788,-0.0716,-0.066,-0.0556,-0.0553,-0.0382,-0.0432,-0.0347,-0.0282,-0.0275,-0.0217,-0.0213,-0.0114,-0.0027,0.007,-0.0213,-0.0215,-0.0217,0,-0.0828,-0.0861,-0.0879,-0.0893,-0.0915,-0.0904,-0.0899,-0.0862,-0.0844,-0.0763,-0.0732,-0.0614,-0.0549,-0.0436,-0.0318,-0.0338,-0.0143,-0.0146,-0.0045,-0.0043,0.0034,0.0038,0.0217,-0.0014,-0.0014,-0.0015,-0.0015,0,-0.0841,-0.0857,-0.0881,-0.09,-0.0904,-0.091,-0.0895,-0.0871,-0.0821,-0.0787,-0.0714,-0.0653,-0.0516,-0.04,-0.0299,-0.0131,-0.012,-0.0026,0.0006,0.0012,0.0013,0.0145,0.0175,-0.001,-0.0011,-0.0012,-0.0013,0,-0.0867,-0.088,-0.0913,-0.0921,-0.0922,-0.0935,-0.0932,-0.0917,-0.0862,-0.0815,-0.0789,-0.0665,-0.0509,-0.0376,-0.0176,-0.0097,0.0129,0.0115,0.0095,0.0122,0.0293,0.0317,0.0521,0.0599,0.0251,0.0253,0.0254,0,-0.0886,-0.0909,-0.0944,-0.0966,-0.0975,-0.0987,-0.0994,-0.0954,-0.0934,-0.082,-0.079,-0.063,-0.0501,-0.0221,-0.0042,0.0157,0.0222,0.0287,0.0265,0.0331,0.0382,0.0379,0.0429,0.0337,0.0339,0.0341,0.0342,0,-0.0919,-0.0938,-0.0967,-0.101,-0.1032,-0.1054,-0.1047,-0.1032,-0.0965,-0.0897,-0.0757,-0.0636,-0.0365,-0.0113,0.0128,0.0235,0.0363,0.0325,0.0425,0.05,0.0483,0.0561,0.0199,0.0356,0.0354,0.0353,0.0353,0.0352,-0.0939,-0.0975,-0.1012,-0.105,-0.108,-0.1091,-0.108,-0.1033,-0.0973,-0.0794,-0.0717,-0.0456,-0.0161,0.0194,0.0311,0.0547,0.0507,0.0609,0.0641,0.0638,0.07,0.035,0.0519,0.0518,0.0518,0.0518,0.0517,0,-0.0952,-0.0991,-0.1039,-0.1081,-0.1107,-0.1114,-0.109,-0.103,-0.0917,-0.0708,-0.0529,-0.0108,0.0183,0.0446,0.0742,0.0861,0.0877,0.0906,0.0921,0.0966,0.0699,0.0689,0.0865,0.0865,0.0865,0.0865,0.0865,0.0865,-0.0959,-0.1006,-0.1035,-0.108,-0.1105,-0.1089,-0.106,-0.0927,-0.0759,-0.0398,-0.0081,0.0156,0.048,0.0846,0.1111,0.1133,0.1246,0.1208,0.1283,0.1095,0.1069,0.1044,0.1044,0.1292,0.1293,0.154,0.1543,0.1544]}],[{"header":{"parameterUnit":"m.s-1","parameterCategory":2,"la1":30.2991,"la2":30.254,"lo1":-89.0895,"lo2":-89.0444,"dy":0.0017,"dx":0.0017,"nx":28,"ny":28,"refTime":"2023-08-26T03:00:00:Z","depth":"2","parameterNumber":2,"parameterNumberName":"U-component_of_CURRENTS"},"data":[0,0,0,0,0,0,0,0,0,0,0,0,0,0,0,0,0,0,0,0,0,0,0,0,0,0,0,0,0,0,0,0,0,0,0,0,0,0,0,0,0,0,0,0,0,0,0,0,0,0,0,0,0,0,0,0,0,0,-0.1889,-0.189,0,-0.1926,-0.1926,-0.1926,-0.1937,-0.1937,-0.1937,-0.1937,-0.2034,-0.2036,-0.2039,0,0,0,0,0,0,0,0,0,0,0,0,0,-0.1895,-0.1894,-0.1889,-0.189,-0.189,-0.1926,-0.1926,-0.1926,-0.1937,-0.1937,-0.1937,-0.1937,-0.2033,-0.2036,-0.2039,0,0,0,0,0,0,0,0,0,0,0,0,0,-0.1906,-0.1894,-0.1889,-0.1902,-0.1903,-0.1926,-0.1926,-0.1926,-0.1937,-0.1937,-0.1937,-0.1937,-0.2032,-0.2036,-0.204,-0.2064,0,0,-0.2051,-0.2053,0,0,0,0,0,0,0,0,-0.1905,-0.1905,-0.1899,-0.1901,-0.1903,-0.1929,-0.1963,-0.1976,-0.1937,-0.1922,-0.1937,-0.1937,-0.2005,-0.2011,-0.2015,-0.2068,-0.2072,-0.2052,-0.2054,-0.2056,-0.2057,0,0,0,0,0,0,0,-0.1904,-0.1904,-0.1902,-0.19,-0.1902,-0.1928,-0.1929,-0.1966,-0.1963,-0.1924,-0.1925,-0.1932,-0.2007,-0.2011,-0.2017,-0.2074,-0.2052,-0.2055,-0.2057,-0.2059,-0.2244,-0.2247,0,0,0,0,0,0,-0.19,-0.1903,-0.1901,-0.1903,-0.1906,-0.1928,-0.1929,-0.1919,-0.1962,-0.1968,-0.1932,-0.1933,-0.2004,-0.2013,-0.2021,-0.2046,-0.2056,-0.2059,-0.2062,-0.2242,-0.2245,-0.2248,0,0,0,0,0,0,-0.19,-0.1899,-0.1899,-0.1907,-0.1909,-0.1927,-0.1917,-0.192,-0.1936,-0.1968,-0.1975,-0.1947,-0.2005,-0.2016,-0.2064,-0.205,-0.2061,-0.2065,-0.2239,-0.2243,-0.2246,-0.21,0,0,0,0,0,0,-0.1899,-0.1898,-0.1895,-0.1906,-0.1908,-0.1917,-0.1917,-0.192,-0.194,-0.1942,-0.1983,-0.1991,-0.2006,-0.2058,-0.2068,-0.2056,-0.2068,-0.2235,-0.2241,-0.2245,-0.2102,-0.2099,-0.2096,0,0,0,0,0,-0.1899,-0.1895,-0.1894,-0.1895,-0.1901,-0.1918,-0.1921,-0.1934,-0.1941,-0.1949,-0.198,-0.199,-0.2098,-0.2063,-0.2074,-0.2062,-0.2233,-0.2239,-0.2245,-0.2103,-0.2099,-0.2096,0,0,0,0,0,0,-0.1904,-0.1897,-0.1896,-0.1892,-0.1906,-0.192,-0.1929,-0.1943,-0.1971,-0.1978,-0.2006,-0.2016,-0.2051,-0.2106,-0.2067,-0.2145,-0.2175,-0.2184,-0.2064,-0.2061,-0.2058,-0.2036,-0.2071,0,0,0,0,0,-0.1901,-0.189,-0.1899,-0.1897,-0.1902,-0.1918,-0.193,-0.1941,-0.1966,-0.1978,-0.201,-0.206,-0.2085,-0.211,-0.2151,-0.219,-0.2198,-0.2207,-0.2203,-0.22,-0.2199,-0.2193,-0.2186,-0.2267,-0.2267,-0.2267,0,0,-0.1907,-0.1899,-0.1896,-0.1897,-0.1905,-0.1917,-0.1924,-0.1944,-0.1954,-0.1987,-0.2019,-0.2043,-0.2097,-0.2122,-0.2147,-0.2163,-0.2181,-0.2207,-0.2202,-0.2204,-0.2198,-0.2189,-0.2181,-0.2271,-0.227,-0.227,0,0,-0.1914,-0.1899,-0.1898,-0.1904,-0.1918,-0.1925,-0.1934,-0.1959,-0.1967,-0.2006,-0.2019,-0.2027,-0.2114,-0.2105,-0.2121,-0.2143,-0.2159,-0.2193,-0.2152,-0.2144,-0.2135,-0.2127,-0.2094,-0.2084,-0.2196,-0.2196,-0.2196,0,-0.1921,-0.1909,-0.1906,-0.1909,-0.1914,-0.1929,-0.1941,-0.195,-0.1992,-0.2,-0.2015,-0.2078,-0.209,-0.2088,-0.2082,-0.212,-0.2133,-0.2134,-0.2129,-0.2122,-0.2116,-0.2084,-0.2075,-0.219,-0.219,-0.2191,-0.2192,0,-0.1926,-0.1922,-0.1922,-0.1918,-0.1931,-0.1938,-0.1951,-0.197,-0.1988,-0.1998,-0.2017,-0.2023,-0.206,-0.206,-0.2064,-0.2042,-0.2067,-0.2104,-0.2106,-0.2096,-0.2067,-0.2059,-0.2181,-0.2183,-0.2185,-0.2186,0,0,-0.19,-0.1922,-0.1914,-0.1914,-0.1932,-0.1934,-0.1956,-0.1967,-0.1971,-0.1998,-0.1999,-0.1992,-0.1994,-0.2015,-0.2015,-0.1992,-0.191,-0.2029,-0.2032,-0.194,-0.1885,-0.1811,-0.1796,-0.1951,-0.195,-0.1949,-0.1865,0,-0.1896,-0.19,-0.1916,-0.1919,-0.1917,-0.194,-0.1953,-0.1969,-0.1985,-0.1992,-0.1977,-0.1981,-0.198,-0.1975,-0.1949,-0.1935,-0.1894,-0.1929,-0.1961,-0.1961,-0.1848,-0.1787,-0.167,-0.1579,-0.1858,-0.1857,-0.1856,0,-0.1868,-0.1873,-0.1881,-0.19,-0.1902,-0.1913,-0.1922,-0.1938,-0.1953,-0.1968,-0.197,-0.1979,-0.1931,-0.1939,-0.1885,-0.192,-0.1889,-0.1869,-0.1867,-0.1846,-0.1874,-0.165,-0.1556,-0.1845,-0.1846,-0.1847,-0.1848,0,-0.1808,-0.1832,-0.1832,-0.1835,-0.1872,-0.1881,-0.1899,-0.1925,-0.1937,-0.1939,-0.195,-0.1934,-0.1912,-0.1891,-0.1847,-0.1874,-0.1791,-0.1826,-0.1725,-0.172,-0.165,-0.1639,-0.1775,-0.1775,-0.1775,-0.1775,-0.1775,0,-0.1763,-0.1756,-0.18,-0.1792,-0.1797,-0.1834,-0.184,-0.1865,-0.1894,-0.1891,-0.192,-0.1909,-0.1904,-0.187,-0.1838,-0.1745,-0.1783,-0.1689,-0.1685,-0.1598,-0.1584,-0.1864,-0.1876,-0.1772,-0.1773,-0.1773,-0.1774,0,-0.1692,-0.1719,-0.172,-0.1758,-0.1766,-0.1764,-0.1813,-0.1817,-0.1853,-0.1851,-0.185,-0.1876,-0.182,-0.1801,-0.1744,-0.171,-0.1643,-0.1603,-0.1481,-0.1464,-0.1577,-0.1584,-0.1471,-0.1468,-0.1465,-0.1462,-0.146,0,-0.166,-0.1649,-0.1682,-0.1683,-0.17,-0.1712,-0.1723,-0.178,-0.179,-0.182,-0.1807,-0.1779,-0.1733,-0.1628,-0.1549,-0.1456,-0.1538,-0.1306,-0.1318,-0.1534,-0.1543,-0.1554,-0.1564,-0.1161,-0.1157,-0.1153,-0.115,0,-0.1597,-0.1607,-0.1612,-0.1613,-0.162,-0.1635,-0.1656,-0.1668,-0.1716,-0.1718,-0.1698,-0.1666,-0.1565,-0.1413,-0.1305,-0.1247,-0.1314,-0.1229,-0.1477,-0.1262,-0.1236,-0.1248,-0.1269,-0.1119,-0.1122,-0.1124,-0.1126,-0.1127,-0.1546,-0.1535,-0.1534,-0.1528,-0.154,-0.1537,-0.151,-0.1542,-0.1537,-0.1504,-0.1549,-0.1445,-0.1387,-0.115,-0.1057,-0.098,-0.108,-0.1036,-0.1049,-0.1066,-0.1051,-0.1022,-0.0859,-0.0861,-0.0862,-0.0863,-0.0864,0,-0.1466,-0.1454,-0.1448,-0.143,-0.1399,-0.1437,-0.1437,-0.1383,-0.1332,-0.1332,-0.1285,-0.1097,-0.0982,-0.0928,-0.0756,-0.0709,-0.0727,-0.0678,-0.0712,-0.0743,-0.077,-0.0744,-0.0468,-0.0467,-0.0466,-0.0465,0,0,-0.142,-0.1375,-0.1366,-0.1279,-0.1265,-0.1176,-0.115,-0.1085,-0.1053,-0.0973,-0.0913,-0.0953,-0.0923,-0.0716,-0.0643,-0.0534,-0.0642,-0.0499,-0.0816,-0.0889,-0.0916,-0.0969,-0.0961,0,0,0,0,0]},{"header":{"parameterUnit":"m.s-1","parameterCategory":2,"la1":30.2991,"la2":30.254,"lo1":-89.0895,"lo2":-89.0444,"dy":0.0017,"dx":0.0017,"nx":28,"ny":28,"refTime":"2023-08-26T03:00:00:Z","depth":"2","parameterNumber":3,"parameterNumberName":"V-component_of_CURRENTS"},"data":[0,0,0,0,0,0,0,0,0,0,0,0,0,0,0,0,0,0,0,0,0,0,0,0,0,0,0,0,0,0,0,0,0,0,0,0,0,0,0,0,0,0,0,0,0,0,0,0,0,0,0,0,0,0,0,0,0,0,-0.0263,-0.0263,0,-0.0204,-0.0203,-0.0202,-0.0151,-0.0151,-0.015,-0.015,-0.0037,-0.0035,-0.0032,0,0,0,0,0,0,0,0,0,0,0,0,0,-0.0334,-0.0333,-0.0263,-0.0263,-0.0262,-0.0204,-0.0203,-0.0202,-0.0152,-0.0151,-0.015,-0.015,-0.0038,-0.0035,-0.0032,0,0,0,0,0,0,0,0,0,0,0,0,0,-0.0292,-0.0333,-0.0264,-0.023,-0.0226,-0.0204,-0.0203,-0.0202,-0.0152,-0.0151,-0.015,-0.0149,-0.0039,-0.0035,-0.0031,-0.0026,0,0,-0.002,-0.0018,0,0,0,0,0,0,0,0,-0.0294,-0.0289,-0.0235,-0.0232,-0.0228,-0.0184,-0.0187,-0.014,-0.0152,-0.018,-0.015,-0.0149,-0.0082,-0.0075,-0.0066,-0.002,-0.0015,-0.002,-0.0017,-0.0016,-0.0015,0,0,0,0,0,0,0,-0.0297,-0.0292,-0.024,-0.0235,-0.023,-0.0218,-0.0211,-0.0178,-0.0135,-0.0177,-0.0174,-0.0167,-0.0079,-0.007,-0.0063,-0.0014,-0.002,-0.0017,-0.0014,-0.0013,0.0151,0.0153,0,0,0,0,0,0,-0.0305,-0.0294,-0.0242,-0.0238,-0.026,-0.0217,-0.0209,-0.0199,-0.0137,-0.0127,-0.0168,-0.0165,-0.0077,-0.0067,-0.0059,-0.0036,-0.0016,-0.0012,-0.001,0.0148,0.0151,0.0153,0,0,0,0,0,0,-0.0307,-0.0301,-0.0244,-0.0265,-0.0257,-0.0217,-0.0206,-0.0198,-0.0188,-0.013,-0.0119,-0.0165,-0.0076,-0.0064,-0.0022,-0.0032,-0.0011,-0.0007,0.0146,0.0149,0.0152,0.0001,0,0,0,0,0,0,-0.0309,-0.0302,-0.0303,-0.0266,-0.0256,-0.0236,-0.0206,-0.0198,-0.0185,-0.0181,-0.0124,-0.0113,-0.0074,-0.0027,-0.0018,-0.0026,-0.0004,0.0143,0.0147,0.0151,0.0004,-0.0001,-0.0005,0,0,0,0,0,-0.0312,-0.0313,-0.0303,-0.0297,-0.0256,-0.0236,-0.023,-0.0199,-0.0186,-0.0186,-0.014,-0.0115,0.0006,-0.0024,-0.0013,-0.0021,0.0141,0.0146,0.0151,0.0006,0.0,-0.0005,0,0,0,0,0,0,-0.0347,-0.0307,-0.0295,-0.0285,-0.0266,-0.0227,-0.0224,-0.0206,-0.0172,-0.0167,-0.0111,-0.0097,-0.0065,-0.0002,-0.0037,0.0052,0.0088,0.0095,-0.0026,-0.0031,-0.0035,-0.0038,-0.0001,0,0,0,0,0,-0.0356,-0.0345,-0.031,-0.0307,-0.0296,-0.0264,-0.0254,-0.0237,-0.02,-0.0185,-0.0142,-0.0078,-0.0036,-0.0004,0.0043,0.008,0.0126,0.01,0.0096,0.0091,0.0105,0.0143,0.0141,0.0169,0.0169,0.0169,0,0,-0.0372,-0.0348,-0.0344,-0.0314,-0.0295,-0.0288,-0.0256,-0.0246,-0.0239,-0.0178,-0.0151,-0.011,-0.003,0.0005,0.003,0.0055,0.0109,0.0097,0.009,0.0109,0.0148,0.0144,0.0141,0.0172,0.0172,0.0171,0,0,-0.0402,-0.0374,-0.0379,-0.036,-0.0337,-0.0314,-0.0314,-0.0278,-0.0259,-0.0234,-0.0186,-0.0146,-0.0071,-0.0022,0.0014,0.0026,0.007,0.0055,0.0033,0.0068,0.0064,0.0061,0.0099,0.0101,0.0067,0.0066,0.0066,0,-0.0427,-0.0421,-0.038,-0.0378,-0.0368,-0.0328,-0.0336,-0.0311,-0.0267,-0.025,-0.0234,-0.0132,-0.0083,-0.0034,-0.0025,0.0007,0.004,0.0023,0.0053,0.0052,0.0052,0.0091,0.0095,0.006,0.0061,0.0061,0.0062,0,-0.0459,-0.0453,-0.0453,-0.0433,-0.0418,-0.0418,-0.0377,-0.0362,-0.0336,-0.0305,-0.0263,-0.0198,-0.0129,-0.0108,-0.0068,-0.0032,-0.0005,0.0016,0.004,0.0038,0.0082,0.0089,0.005,0.0053,0.0055,0.0056,0,0,-0.0512,-0.0485,-0.0485,-0.0484,-0.0448,-0.0439,-0.0425,-0.0398,-0.0386,-0.034,-0.0317,-0.0248,-0.0211,-0.0161,-0.011,-0.0067,-0.0059,-0.0026,-0.0021,-0.0033,0.0018,0.0045,0.0055,-0.005,-0.0049,-0.0048,0.004,0,-0.0553,-0.0568,-0.0539,-0.0549,-0.0548,-0.0503,-0.0491,-0.0458,-0.042,-0.0384,-0.0316,-0.0273,-0.023,-0.0206,-0.0163,-0.008,-0.0044,-0.0084,0.0065,0.0071,0.0056,0.0063,0.0056,0.0136,0.0047,0.0048,0.0049,0,-0.0591,-0.0592,-0.0617,-0.0597,-0.0593,-0.0592,-0.0561,-0.0547,-0.0482,-0.0451,-0.0397,-0.0336,-0.026,-0.023,-0.0105,-0.0135,-0.0065,-0.0004,0.0001,0.009,0.0111,0.0136,0.0152,0.0061,0.006,0.0059,0.0058,0,-0.0638,-0.0641,-0.0665,-0.0658,-0.0633,-0.0635,-0.0621,-0.057,-0.055,-0.0488,-0.046,-0.0373,-0.0316,-0.0226,-0.0094,-0.0101,0.0043,0.0047,0.0139,0.0141,0.0203,0.021,0.0129,0.0129,0.0129,0.0129,0.0129,0,-0.0678,-0.0691,-0.0691,-0.0697,-0.0719,-0.0683,-0.0689,-0.0659,-0.0609,-0.0578,-0.0497,-0.0443,-0.0312,-0.0208,-0.0106,0.0043,0.0034,0.0144,0.0169,0.0153,0.0154,0.0153,0.0155,0.0132,0.0131,0.0131,0.013,0,-0.0711,-0.0715,-0.0739,-0.0738,-0.074,-0.0754,-0.0733,-0.0728,-0.0677,-0.0633,-0.0611,-0.0486,-0.0347,-0.0212,-0.0046,0.0038,0.0168,0.022,0.0195,0.0215,0.0244,0.0238,0.0328,0.033,0.0331,0.0333,0.0334,0,-0.0725,-0.0746,-0.0775,-0.0794,-0.0796,-0.0808,-0.0811,-0.077,-0.075,-0.0648,-0.0622,-0.0481,-0.0357,-0.011,0.0056,0.0236,0.0223,0.0322,0.0311,0.0251,0.0266,0.0257,0.0249,0.0331,0.0332,0.0333,0.0334,0,-0.0751,-0.0772,-0.0794,-0.0837,-0.0857,-0.0873,-0.0866,-0.0854,-0.079,-0.0731,-0.061,-0.0501,-0.0256,-0.004,0.0178,0.0273,0.029,0.0344,0.03,0.0277,0.026,0.0272,0.0263,0.0341,0.034,0.0339,0.0339,0.0339,-0.0769,-0.0801,-0.0838,-0.0875,-0.0904,-0.0917,-0.0912,-0.0875,-0.0826,-0.07,-0.0603,-0.0412,-0.0216,0.0119,0.0266,0.0388,0.0381,0.0413,0.0408,0.0403,0.0382,0.0368,0.0465,0.0465,0.0466,0.0466,0.0466,0,-0.0784,-0.0822,-0.0866,-0.0912,-0.0942,-0.0945,-0.093,-0.0894,-0.0815,-0.0674,-0.0531,-0.0288,-0.0049,0.0137,0.0355,0.0481,0.0456,0.0483,0.0433,0.0427,0.042,0.0398,0.0487,0.0488,0.0488,0.0488,0,0,-0.0793,-0.084,-0.0868,-0.0925,-0.0954,-0.0958,-0.094,-0.0868,-0.0757,-0.0586,-0.0433,-0.0248,-0.0015,0.0142,0.0295,0.0404,0.0375,0.0402,0.0374,0.0291,0.0283,0.0373,0.033,0,0,0,0,0]}],[{"header":{"parameterUnit":"m.s-1","parameterCategory":2,"la1":30.2991,"la2":30.254,"lo1":-89.0895,"lo2":-89.0444,"dy":0.0017,"dx":0.0017,"nx":28,"ny":28,"refTime":"2023-08-26T03:00:00:Z","depth":"4","parameterNumber":2,"parameterNumberName":"U-component_of_CURRENTS"},"data":[0,0,0,0,0,0,0,0,0,0,0,0,0,0,0,0,0,0,0,0,0,0,0,0,0,0,0,0,0,0,0,0,0,0,0,0,0,0,0,0,0,0,0,0,0,0,0,0,0,0,0,0,0,0,0,0,0,0,-0.1326,-0.1326,0,-0.136,-0.1361,-0.1361,-0.1379,-0.1379,-0.1379,-0.1379,-0.1405,-0.1406,-0.1407,0,0,0,0,0,0,0,0,0,0,0,0,0,-0.1319,-0.1319,-0.1326,-0.1326,-0.1327,-0.136,-0.1361,-0.1361,-0.1379,-0.1379,-0.1379,-0.1379,-0.1405,-0.1406,-0.1407,0,0,0,0,0,0,0,0,0,0,0,0,0,-0.1334,-0.1318,-0.1326,-0.134,-0.1342,-0.136,-0.1361,-0.1361,-0.1379,-0.1379,-0.1379,-0.1379,-0.1405,-0.1406,-0.1407,-0.141,0,0,-0.141,-0.141,0,0,0,0,0,0,0,0,-0.1333,-0.1334,-0.1338,-0.1339,-0.1341,-0.1366,-0.1368,-0.1377,-0.1379,-0.1364,-0.1379,-0.1379,-0.1392,-0.1394,-0.1399,-0.1411,-0.1412,-0.141,-0.141,-0.1411,-0.1411,0,0,0,0,0,0,0,-0.1332,-0.1333,-0.1339,-0.1338,-0.134,-0.136,-0.1362,-0.137,-0.1376,-0.1366,-0.1367,-0.1372,-0.1393,-0.1398,-0.14,-0.1413,-0.141,-0.1411,-0.1411,-0.1411,-0.1446,-0.1446,0,0,0,0,0,0,-0.1326,-0.1331,-0.1338,-0.134,-0.1338,-0.136,-0.1362,-0.1358,-0.1376,-0.138,-0.1372,-0.1373,-0.1397,-0.1399,-0.1401,-0.1439,-0.1411,-0.1412,-0.1412,-0.1445,-0.1446,-0.1446,0,0,0,0,0,0,-0.1326,-0.1326,-0.1336,-0.1338,-0.1341,-0.136,-0.1355,-0.1358,-0.1383,-0.1381,-0.1384,-0.1395,-0.1397,-0.14,-0.1422,-0.1439,-0.1412,-0.1413,-0.1445,-0.1446,-0.1446,-0.1494,0,0,0,0,0,0,-0.1325,-0.1325,-0.1335,-0.1337,-0.134,-0.1353,-0.1355,-0.1359,-0.1385,-0.1387,-0.1402,-0.1404,-0.1397,-0.1421,-0.1423,-0.144,-0.1414,-0.1445,-0.1445,-0.1446,-0.1492,-0.1496,-0.15,0,0,0,0,0,-0.1325,-0.1331,-0.1335,-0.1337,-0.1347,-0.1354,-0.1357,-0.1371,-0.1386,-0.1395,-0.141,-0.1404,-0.1426,-0.1423,-0.1425,-0.1442,-0.1444,-0.1445,-0.1446,-0.149,-0.1495,-0.15,0,0,0,0,0,0,-0.1341,-0.1334,-0.1338,-0.1344,-0.1352,-0.1357,-0.1375,-0.1385,-0.1405,-0.1416,-0.1416,-0.1418,-0.1438,-0.1434,-0.143,-0.1451,-0.1432,-0.1433,-0.1465,-0.1469,-0.1473,-0.1475,-0.1414,0,0,0,0,0,-0.1347,-0.1345,-0.1345,-0.1355,-0.1361,-0.1374,-0.1386,-0.1393,-0.1406,-0.1416,-0.1426,-0.1435,-0.144,-0.1452,-0.145,-0.1473,-0.1458,-0.1482,-0.1486,-0.1489,-0.1491,-0.1494,-0.1498,-0.1449,-0.1449,-0.1449,0,0,-0.136,-0.1354,-0.1358,-0.1358,-0.137,-0.1382,-0.1382,-0.1402,-0.1418,-0.1415,-0.1449,-0.145,-0.1447,-0.1464,-0.1473,-0.1468,-0.1491,-0.149,-0.1494,-0.1493,-0.1495,-0.15,-0.1504,-0.1449,-0.1449,-0.1449,0,0,-0.1378,-0.1379,-0.1384,-0.1389,-0.1402,-0.1405,-0.1415,-0.143,-0.1443,-0.1468,-0.1468,-0.1483,-0.1495,-0.1498,-0.15,-0.1526,-0.1507,-0.1525,-0.1556,-0.1559,-0.1563,-0.1567,-0.1539,-0.154,-0.1534,-0.1534,-0.1534,0,-0.1402,-0.1397,-0.1392,-0.1399,-0.141,-0.1418,-0.1436,-0.1448,-0.1469,-0.1485,-0.1482,-0.1508,-0.1509,-0.1532,-0.1539,-0.1536,-0.1524,-0.1542,-0.1565,-0.1569,-0.1571,-0.1542,-0.1543,-0.1536,-0.1536,-0.1536,-0.1535,0,-0.1411,-0.1423,-0.143,-0.1435,-0.1448,-0.1463,-0.1473,-0.1495,-0.1512,-0.1522,-0.155,-0.1551,-0.1566,-0.1568,-0.1564,-0.1588,-0.1567,-0.1566,-0.1556,-0.158,-0.1547,-0.1546,-0.154,-0.1539,-0.1538,-0.1537,0,0,-0.1415,-0.1435,-0.1438,-0.1448,-0.1467,-0.1473,-0.1508,-0.1531,-0.1556,-0.1574,-0.1601,-0.1614,-0.1619,-0.162,-0.1619,-0.1627,-0.1632,-0.1612,-0.1611,-0.1588,-0.1619,-0.15,-0.1487,-0.1642,-0.1643,-0.1643,-0.1583,0,-0.1427,-0.1447,-0.1457,-0.1484,-0.1491,-0.1515,-0.1542,-0.1567,-0.1588,-0.1612,-0.1624,-0.164,-0.1637,-0.1647,-0.1657,-0.1635,-0.1636,-0.1647,-0.1596,-0.1594,-0.1489,-0.1485,-0.1645,-0.1583,-0.1582,-0.1582,-0.1582,0,-0.1412,-0.1429,-0.146,-0.1495,-0.1504,-0.1529,-0.1569,-0.1594,-0.1632,-0.1648,-0.1677,-0.168,-0.1695,-0.1685,-0.1671,-0.1681,-0.1656,-0.1637,-0.1634,-0.1506,-0.1473,-0.1557,-0.1581,-0.1581,-0.1581,-0.1581,-0.1581,0,-0.1374,-0.1421,-0.1446,-0.1456,-0.1503,-0.1534,-0.1564,-0.1608,-0.163,-0.167,-0.1684,-0.1707,-0.1705,-0.1697,-0.1658,-0.167,-0.1624,-0.1633,-0.1501,-0.1491,-0.1598,-0.1595,-0.1624,-0.1624,-0.1624,-0.1624,-0.1624,0,-0.1343,-0.1365,-0.1434,-0.1441,-0.1478,-0.1518,-0.1559,-0.1595,-0.1642,-0.165,-0.1697,-0.1693,-0.1711,-0.1687,-0.166,-0.156,-0.1624,-0.1493,-0.1468,-0.1616,-0.1616,-0.1596,-0.1594,-0.1622,-0.1622,-0.1623,-0.1623,0,-0.128,-0.1327,-0.1358,-0.143,-0.1455,-0.1478,-0.155,-0.157,-0.1625,-0.1637,-0.1648,-0.168,-0.1633,-0.1625,-0.1588,-0.1535,-0.1471,-0.1424,-0.1558,-0.1544,-0.1336,-0.1337,-0.1266,-0.1261,-0.1257,-0.1254,-0.1251,0,-0.1246,-0.1255,-0.134,-0.1362,-0.1399,-0.1446,-0.1472,-0.1546,-0.1559,-0.1604,-0.1591,-0.1582,-0.1579,-0.1422,-0.1438,-0.136,-0.135,-0.1312,-0.1346,-0.1316,-0.13,-0.1307,-0.1313,-0.1245,-0.1244,-0.1242,-0.1241,0,-0.1181,-0.1224,-0.1253,-0.1297,-0.1335,-0.1369,-0.1412,-0.1415,-0.1473,-0.1541,-0.148,-0.1439,-0.1377,-0.1331,-0.1271,-0.1229,-0.1336,-0.127,-0.1279,-0.1311,-0.129,-0.1279,-0.129,-0.1228,-0.123,-0.1231,-0.1232,0,-0.1138,-0.1145,-0.1186,-0.1212,-0.126,-0.1264,-0.1305,-0.1303,-0.1322,-0.1376,-0.1347,-0.1332,-0.1357,-0.126,-0.121,-0.1147,-0.1134,-0.1109,-0.1126,-0.1141,-0.1127,-0.1083,-0.0924,0,0,0,0,0,-0.1083,-0.1074,-0.1095,-0.111,-0.1155,-0.1173,-0.1245,-0.1286,-0.1345,-0.1264,-0.1301,-0.1233,-0.1146,-0.1149,-0.1052,-0.1151,-0.1144,-0.1036,-0.1126,-0.1151,-0.1167,-0.1161,0,0,0,0,0,0,-0.1042,-0.1059,-0.1057,-0.1013,-0.1001,-0.1028,-0.1069,-0.1117,-0.1082,-0.1148,-0.1105,-0.1147,-0.1082,-0.116,-0.1018,-0.1015,-0.1046,-0.1036,-0.1032,-0.1142,-0.1156,-0.1169,-0.1169,0,0,0,0,0]},{"header":{"parameterUnit":"m.s-1","parameterCategory":2,"la1":30.2991,"la2":30.254,"lo1":-89.0895,"lo2":-89.0444,"dy":0.0017,"dx":0.0017,"nx":28,"ny":28,"refTime":"2023-08-26T03:00:00:Z","depth":"4","parameterNumber":3,"parameterNumberName":"V-component_of_CURRENTS"},"data":[0,0,0,0,0,0,0,0,0,0,0,0,0,0,0,0,0,0,0,0,0,0,0,0,0,0,0,0,0,0,0,0,0,0,0,0,0,0,0,0,0,0,0,0,0,0,0,0,0,0,0,0,0,0,0,0,0,0,-0.0181,-0.0181,0,-0.0163,-0.0163,-0.0163,-0.0144,-0.0144,-0.0143,-0.0143,-0.011,-0.011,-0.0109,0,0,0,0,0,0,0,0,0,0,0,0,0,-0.021,-0.021,-0.0182,-0.0181,-0.0181,-0.0163,-0.0163,-0.0163,-0.0144,-0.0144,-0.0143,-0.0143,-0.011,-0.011,-0.0109,0,0,0,0,0,0,0,0,0,0,0,0,0,-0.0197,-0.021,-0.0182,-0.0168,-0.0167,-0.0163,-0.0163,-0.0163,-0.0144,-0.0144,-0.0143,-0.0143,-0.011,-0.011,-0.0109,-0.0115,0,0,-0.0107,-0.0106,0,0,0,0,0,0,0,0,-0.0198,-0.0196,-0.0171,-0.0169,-0.0168,-0.0154,-0.0161,-0.0146,-0.0144,-0.0154,-0.0143,-0.0142,-0.0123,-0.0121,-0.0121,-0.0114,-0.0112,-0.0106,-0.0106,-0.0106,-0.0105,0,0,0,0,0,0,0,-0.0199,-0.0197,-0.0176,-0.017,-0.0168,-0.0167,-0.0164,-0.0158,-0.0143,-0.0153,-0.0152,-0.0148,-0.0122,-0.0122,-0.012,-0.0112,-0.0106,-0.0106,-0.0105,-0.0105,-0.011,-0.011,0,0,0,0,0,0,-0.0198,-0.0197,-0.0176,-0.0175,-0.018,-0.0167,-0.0164,-0.016,-0.0143,-0.014,-0.0148,-0.0147,-0.0123,-0.0121,-0.0119,-0.0115,-0.0106,-0.0105,-0.0104,-0.0109,-0.011,-0.011,0,0,0,0,0,0,-0.0199,-0.0197,-0.0177,-0.0185,-0.0182,-0.0166,-0.0163,-0.016,-0.0159,-0.0139,-0.0135,-0.0149,-0.0123,-0.012,-0.0113,-0.0114,-0.0105,-0.0104,-0.0108,-0.0109,-0.011,-0.0113,0,0,0,0,0,0,-0.02,-0.0197,-0.02,-0.0185,-0.0181,-0.0179,-0.0163,-0.016,-0.0157,-0.0155,-0.0139,-0.0135,-0.0122,-0.0115,-0.0113,-0.0112,-0.0103,-0.0108,-0.0109,-0.011,-0.0112,-0.0114,-0.0116,0,0,0,0,0,-0.0201,-0.0206,-0.02,-0.0197,-0.0183,-0.0179,-0.0178,-0.0166,-0.0157,-0.0162,-0.0148,-0.0136,-0.0121,-0.0114,-0.0112,-0.0111,-0.0107,-0.0108,-0.011,-0.0112,-0.0114,-0.0116,0,0,0,0,0,0,-0.0224,-0.0203,-0.0197,-0.0196,-0.019,-0.0176,-0.0179,-0.0169,-0.0163,-0.0161,-0.014,-0.0136,-0.0134,-0.0126,-0.012,-0.0119,-0.0113,-0.0114,-0.0116,-0.0118,-0.0119,-0.0114,-0.0103,0,0,0,0,0,-0.0229,-0.0226,-0.0209,-0.0212,-0.0208,-0.0195,-0.0192,-0.0185,-0.0174,-0.0171,-0.0158,-0.0147,-0.0139,-0.013,-0.0128,-0.0123,-0.0099,-0.0123,-0.0125,-0.0126,-0.0122,-0.008,-0.0077,-0.0115,-0.0115,-0.0115,0,0,-0.0241,-0.0229,-0.0228,-0.0217,-0.0211,-0.0211,-0.0192,-0.0193,-0.0192,-0.0169,-0.0167,-0.0156,-0.0142,-0.0138,-0.0136,-0.0127,-0.0106,-0.0128,-0.0129,-0.0124,-0.0081,-0.0077,-0.0073,-0.0116,-0.0116,-0.0116,0,0,-0.0264,-0.025,-0.0256,-0.0249,-0.024,-0.023,-0.0231,-0.0218,-0.021,-0.0209,-0.019,-0.0172,-0.0171,-0.0146,-0.0137,-0.0146,-0.0121,-0.0157,-0.015,-0.0109,-0.0105,-0.0101,-0.0072,-0.0065,-0.015,-0.015,-0.015,0,-0.0283,-0.0282,-0.026,-0.0263,-0.026,-0.0239,-0.0248,-0.0237,-0.0225,-0.0215,-0.0213,-0.0187,-0.0171,-0.0144,-0.0146,-0.0146,-0.0127,-0.014,-0.0109,-0.0104,-0.01,-0.0071,-0.0063,-0.015,-0.015,-0.015,-0.015,0,-0.0307,-0.0308,-0.0311,-0.0304,-0.0298,-0.0305,-0.0282,-0.0277,-0.0265,-0.0248,-0.0229,-0.0201,-0.018,-0.0174,-0.0161,-0.0126,-0.0124,-0.0119,-0.0098,-0.0096,-0.0066,-0.0058,-0.015,-0.015,-0.015,-0.015,0,0,-0.0351,-0.0334,-0.0338,-0.0338,-0.0321,-0.0321,-0.0313,-0.0297,-0.0289,-0.0267,-0.0249,-0.0217,-0.0194,-0.0181,-0.0156,-0.0113,-0.0064,-0.0104,-0.0102,-0.0065,0.0017,0.0008,0.0016,-0.0052,-0.0051,-0.005,0.0025,0,-0.0383,-0.0399,-0.0379,-0.0393,-0.0394,-0.0366,-0.0361,-0.0339,-0.0317,-0.0295,-0.0243,-0.0225,-0.0199,-0.0188,-0.0138,-0.009,-0.0043,-0.0085,0.0001,0.0004,0.0004,0.0025,-0.0045,0.0031,0.0033,0.0034,0.0035,0,-0.0413,-0.0418,-0.0441,-0.0428,-0.0427,-0.0433,-0.0415,-0.0408,-0.0359,-0.034,-0.0294,-0.0257,-0.0191,-0.0174,-0.0065,-0.0096,-0.0039,0.0006,0.001,0.0011,0.001,0.0029,0.005,0.0049,0.0047,0.0046,0.0046,0,-0.0448,-0.0457,-0.0478,-0.0477,-0.0463,-0.0468,-0.0463,-0.0426,-0.0413,-0.0366,-0.0347,-0.0269,-0.0232,-0.0146,-0.0052,-0.0058,0.0066,0.0069,0.012,0.0119,0.0107,0.0102,0.0155,0.0155,0.0155,0.0155,0.0154,0,-0.0474,-0.049,-0.0502,-0.051,-0.0535,-0.051,-0.0521,-0.0499,-0.0463,-0.0441,-0.0375,-0.0332,-0.0222,-0.0137,-0.0053,0.0056,0.0068,0.0129,0.0144,0.0101,0.0094,0.0113,0.0107,0.0158,0.0157,0.0156,0.0156,0,-0.0491,-0.0503,-0.0529,-0.0541,-0.0549,-0.0567,-0.0562,-0.056,-0.0525,-0.0493,-0.0477,-0.0374,-0.0264,-0.0152,-0.0011,0.0049,0.0154,0.0191,0.0132,0.0141,0.018,0.0173,0.0255,0.0256,0.0256,0.0256,0.0257,0,-0.0494,-0.0514,-0.0559,-0.0583,-0.0592,-0.0614,-0.0624,-0.0598,-0.0583,-0.051,-0.0488,-0.038,-0.0302,-0.0105,0.0002,0.0159,0.0181,0.0226,0.0213,0.0187,0.0193,0.0185,0.0178,0.0257,0.0257,0.0257,0.0257,0,-0.0499,-0.0531,-0.0555,-0.061,-0.064,-0.0662,-0.0668,-0.0655,-0.0613,-0.0585,-0.0475,-0.0365,-0.024,-0.0095,0.0022,0.0135,0.0189,0.023,0.023,0.0219,0.019,0.0194,0.0186,0.0259,0.0259,0.0258,0.0258,0,-0.0508,-0.0536,-0.0585,-0.0627,-0.0673,-0.0691,-0.069,-0.0652,-0.0627,-0.0533,-0.0498,-0.0355,-0.0272,-0.0106,0.0005,0.0109,0.0136,0.0162,0.0166,0.0166,0.0113,0.0062,0.0113,0,0,0,0,0,-0.0509,-0.0546,-0.0592,-0.0645,-0.0691,-0.0711,-0.0709,-0.0694,-0.065,-0.0573,-0.0528,-0.0404,-0.0218,-0.0133,-0.0027,-0.0004,0.0135,0.0119,0.0162,0.0266,0.0264,0.0216,0,0,0,0,0,0,-0.0513,-0.0563,-0.0592,-0.0651,-0.0686,-0.0727,-0.0723,-0.0692,-0.0632,-0.0572,-0.0465,-0.0399,-0.0216,-0.0284,-0.0034,-0.0002,0.0036,0.0209,0.0211,0.0267,0.0265,0.0264,0.0214,0,0,0,0,0]}]]